TimeEDT,TemperatureF,Dew PointF,Humidity,Sea Level PressureIn,VisibilityMPH,Wind Direction,Wind SpeedMPH,Gust SpeedMPH,PrecipitationIn,Events,Conditions,WindDirDegrees,DateUTC
12:53 AM,51.1,36.0,56,30.10,10.0,North,4.6,-,N/A,,Scattered Clouds,360,2013-10-05 04:53:00
1:53 AM,46.0,37.9,73,30.12,10.0,Calm,Calm,-,N/A,,Scattered Clouds,0,2013-10-05 05:53:00
2:53 AM,46.0,37.9,73,30.11,10.0,Calm,Calm,-,N/A,,Scattered Clouds,0,2013-10-05 06:53:00
3:53 AM,45.0,39.9,82,30.12,10.0,Calm,Calm,-,N/A,,Scattered Clouds,0,2013-10-05 07:53:00
4:53 AM,46.9,39.9,77,30.12,10.0,North,3.5,-,N/A,,Mostly Cloudy,360,2013-10-05 08:53:00
5:53 AM,46.0,39.0,76,30.14,10.0,NNW,3.5,-,N/A,,Overcast,340,2013-10-05 09:53:00
6:53 AM,46.9,39.9,77,30.15,10.0,North,3.5,-,N/A,,Overcast,10,2013-10-05 10:53:00
7:53 AM,48.0,39.9,74,30.16,10.0,NNE,3.5,-,N/A,,Overcast,20,2013-10-05 11:53:00
8:53 AM,50.0,41.0,71,30.16,10.0,Calm,Calm,-,N/A,,Mostly Cloudy,0,2013-10-05 12:53:00
9:53 AM,52.0,39.0,61,30.15,10.0,NNE,5.8,-,N/A,,Mostly Cloudy,20,2013-10-05 13:53:00
10:53 AM,54.0,39.0,57,30.15,10.0,NE,3.5,-,N/A,,Mostly Cloudy,40,2013-10-05 14:53:00
11:53 AM,55.9,39.0,53,30.14,10.0,North,3.5,-,N/A,,Mostly Cloudy,350,2013-10-05 15:53:00
12:53 PM,59.0,41.0,51,30.12,10.0,Calm,Calm,-,N/A,,Mostly Cloudy,0,2013-10-05 16:53:00
1:53 PM,60.1,42.1,51,30.09,10.0,SW,4.6,-,N/A,,Mostly Cloudy,220,2013-10-05 17:53:00
2:53 PM,63.0,42.1,46,30.08,10.0,Calm,Calm,-,N/A,,Mostly Cloudy,0,2013-10-05 18:53:00
3:53 PM,62.1,39.9,44,30.08,10.0,WSW,4.6,-,N/A,,Overcast,250,2013-10-05 19:53:00
4:53 PM,61.0,41.0,48,30.08,10.0,WSW,3.5,-,N/A,,Overcast,250,2013-10-05 20:53:00
5:53 PM,60.1,42.1,51,30.09,10.0,Calm,Calm,-,N/A,,Overcast,0,2013-10-05 21:53:00
6:53 PM,54.0,45.0,72,30.10,10.0,Calm,Calm,-,N/A,,Overcast,0,2013-10-05 22:53:00
7:53 PM,54.0,46.0,75,30.11,10.0,SW,4.6,-,N/A,,Mostly Cloudy,220,2013-10-05 23:53:00
8:53 PM,52.0,46.0,80,30.12,10.0,Calm,Calm,-,N/A,,Mostly Cloudy,0,2013-10-06 00:53:00
9:53 PM,48.0,45.0,89,30.14,10.0,Calm,Calm,-,N/A,,Mostly Cloudy,0,2013-10-06 01:53:00
10:53 PM,48.0,44.1,86,30.15,10.0,NNW,4.6,-,N/A,,Scattered Clouds,340,2013-10-06 02:53:00
11:53 PM,48.9,39.0,69,30.17,10.0,NNE,9.2,-,N/A,,Partly Cloudy,20,2013-10-06 03:53:00